Location: Benque
(43.2594°N, 0.9178°E)
Time: 15:32:51
(UTC+00:00)

DELTA 2 R/B (1) - Pass Details

Date: 24 January 2020
Orbit: 791 x 802 km, 39.6° (Epoch: 23 February)

Event Time Altitude Azimuth Distance (km) Brightness Sun altitude
Rises 18:06:45 0° 264° (W) 3,289 8.7 -12.7°
Reaches altitude 10° 18:09:15 10° 261° (W) 2,361 7.5 -13.2°
Maximum altitude 18:14:44 60° 182° (S) 905 3.9 -14.2°
Enters shadow 18:18:51 18° 107° (ESE) 1,876 5.0 -14.9°
